Regional Weather Roundup
Issued by NWS Upton, NY

Current Version | Previous Version | Graphics & Text | Print | Product List | Glossary Off
Versions: 1 2 3 4 5 6 7 8 9 10 11 12 13 14 15 16 17 18 19 20 21 22 23 24 25 26 27 28 29 30 31 32 33 34 35 36 37 38 39 40 41 42 43 44 45 46 47 48 49 50

569
ASUS41 KOKX 271708
RWROKX

REGIONAL WEATHER ROUNDUP
NATIONAL WEATHER SERVICE NEW YORK NY
100 PM EDT MON MAR 27 2017

NOTE: "FAIR" INDICATES FEW OR NO CLOUDS BELOW 12,000 FEET WITH NO
SIGNIFICANT WEATHER AND/OR OBSTRUCTIONS TO VISIBILITY.

NYZ071-072-176-178-NJZ106-104-271800-
NEW YORK CITY METRO AREA

CITY           SKY/WX    TMP DP  RH WIND       PRES   REMARKS
Central Park   CLOUDY    48  43  82 NE3       30.07F
Wall St Helipt CLOUDY    46  43  87 CALM      30.06F
LaGuardia APRT CLOUDY    44  41  89 NE8       30.05F
Kennedy INTL   CLOUDY    49  47  93 CALM      30.06F
Breezy Point   NOT AVBL
Newark/Liberty CLOUDY    48  45  89 CALM      30.05F
Teterboro      CLOUDY    47  43  86 CALM      30.04F
$$

NYZ177-179-078>081-271800-
LONG ISLAND NEW YORK

CITY           SKY/WX    TMP DP  RH WIND       PRES   REMARKS
Jones Beach    NOT AVBL
Matinecock PT  NOT AVBL
Farmingdale    CLOUDY    49  48  97 SW6       30.05F
MacArthur/ISP  CLOUDY    50  50 100 SW8       30.04F FOG
Shirley        CLOUDY    48  48 100 SW6       30.06S
Westhampton    LGT RAIN  48  47  96 SW8       30.06F FOG
East Hampton   CLOUDY    48  47  95 S7        30.05F
Montauk        NOT AVBL
$$

NYZ052-065-067-271800-
HUDSON VALLEY

CITY           SKY/WX    TMP DP  RH WIND       PRES   REMARKS
White Plains   CLOUDY    44  42  93 CALM      30.04S FOG
Newburgh       LGT RAIN  39  39 100 CALM      30.07F FOG
Montgomery     CLOUDY    41  39  93 CALM      30.05F
Poughkeepsie   CLOUDY    40  38  93 CALM      30.06F FOG
Albany         CLOUDY    41  36  82 SE7       30.05F
$$

NJZ001-105-106-008-010-013-015-019>022-104-271800-
NEW JERSEY

CITY           SKY/WX    TMP DP  RH WIND       PRES   REMARKS
Newark/Liberty CLOUDY    48  45  89 CALM      30.05F
Teterboro      CLOUDY    47  43  86 CALM      30.04F
Caldwell       CLOUDY    46  42  86 CALM      30.05F
Somerville     CLOUDY    48  45  89 CALM      30.03F
Linden         CLOUDY    48  46  90 CALM      30.04F
Sussex         CLOUDY    42  41  96 E3        30.04F
Andover          N/A     45  42  89 N3        30.03F
Trenton        CLOUDY    50  48  93 S3        30.04F
Millville      CLOUDY    61  58  90 SW5       30.05F
Atlantic City  CLOUDY    62  59  90 S6        30.04F
Wrightstown    CLOUDY    55  53  95 W8        30.02F
Toms River     CLOUDY    58  55  90 W9        30.05F
Belmar         CLOUDY    55  52  89 SW10      30.06F
$$

PAZ047>061-062-071-271800-
EASTERN PENNSYLVANIA

CITY           SKY/WX    TMP DP  RH WIND       PRES   REMARKS
Philadelphia   CLOUDY    51  49  92 S3        30.06F FOG
Allentown      CLOUDY    46  42  86 NW5       30.05F FOG
Scranton       CLOUDY    49  45  86 SW6       30.01F
$$

CTZ002-004>006-009-010-012-RIZ004-006-007-MAZ004-011-015-271800-
SOUTHERN NEW ENGLAND
 IN CT

CITY           SKY/WX    TMP DP  RH WIND       PRES   REMARKS
Bradley INTL   DRIZZLE   38  36  92 N7        30.09F FOG     WCI  33
Hartford       CLOUDY    38  37  97 N7        30.08F FOG     WCI  33
Danbury        CLOUDY    40  39  97 NE5       30.06F FOG
Wtrbury/Oxford FOG       39  36  87 CALM      30.05F VSB 1/2
Bridgeport     CLOUDY    45  42  89 N5        30.05F
Meriden        CLOUDY    40  36  86 CALM      30.08F
New Haven      CLOUDY    40  39  97 N8        30.06F WCI  34
Chester        NOT AVBL
Groton         RAIN      46  45  96 SE3       30.05F FOG
Wilimantic     LGT RAIN  43  42  97 N3        30.06F FOG

 IN RI

CITY           SKY/WX    TMP DP  RH WIND       PRES   REMARKS
Providence     LGT RAIN  44  43  96 SE8       30.07F VSB 1/2
Block Island   LGT RAIN  46  46 100 S14       30.06F VSB 1/4
Westerly       LGT RAIN  46  46 100 SE6       30.06F VSB 1/4
 IN MA

CITY           SKY/WX    TMP DP  RH WIND       PRES   REMARKS
Boston         RAIN      41  41 100 N5        30.08F VSB 1/2
Worcester      LGT RAIN  34  33  96 N9        30.05F VSB 1/2 WCI  27
Westfield      MIX PCPN  37  36  96 N9        30.09F FOG     WCI  30
Provincetown   LGT RAIN  44  43  96 SE14G26   30.09F FOG
Nantucket      CLOUDY    45  42  89 SE16      30.11F FOG
$$

ANZ330-335-338-340-345-350-353-355-271800-
COASTAL MARINE OBSERVATIONS


STATION/POSITION TIME  SKY/WX   TEMP    WIND        PRES    VSBY  WAVE
                                AIR SEA DIR/SP/G                  HT/PER
                 (UTC)          (F)     (DEG/KT/KT) (MB)    (MI)  (FT/S)
NY HARB ENTRANCE 1550            44 42  170/  2/  4 1018.3          4/ 7
20 S FIRE ISLAND 1550            45 40  240/ 10/ 12 1018.3          4/ 7
GREAT SOUTH BAY  NOT AVBL
23 SSW MONTAUK P 1550            47 43              1018.7          4/ 7
15 E BARNEGAT LI 1630               43                N/A           4/ 7
HUDSON CANYON    1550            51 45  200/ 12/ 14 1019.1          5/ 7
KINGS POINT      1624            40 39              1017.7
EXECUTION ROCKS  NOT AVBL
CENTRAL LI SOUND NOT AVBL
EASTERN LI SOUND NOT AVBL
ROBBINS REEF     1624            44        CALM     1018.2
$$


>>>>>>>>>>>>>>>>>>>>>>>>>>>> KEY <<<<<<<<<<<<<<<<<<<<<<<<<<<
>                                                          <
>     SKY/WX - Sky Condition/Present Weather               <
>     TMP    - Temperature in Fahrenheit                   <
>     DP     - Dew Point in Fahrenheit                     <
>     RH     - Relative Humidity in Percent                <
>     WIND   - Direction (from) and Speed in MPH           <
>     PRES   - Mean Sea Level Pressure (inches of Hg)      <
>     WCI    - Wind Chill Index                            <
>     VSB    - VISIBILITY IN MILES                         <
>     HX     - HEAT INDEX                                  <
>     TC     - TEMPERATURE IN CELSIUS                      <
>     VRB    - VARIABLE WIND DIRECTION                     <
>                                                          <
>>>>>>>>>>>>>>>>>>>>>>>>>>>> KEY <<<<<<<<<<<<<<<<<<<<<<<<<<<




USA.gov is the U.S. government's official web portal to all federal, state and local government web resources and services.